OCN679 ESGG-EDDM

Flight info

Callsign OCN679
Flight time 1h 31m
Altitude 37000
Route TOPLA L996 ERNOV DCT NEDIK/N0438F380 DCT NOBRI/N0433F370 DCT MAG DCT SODRO/N0408F310 T703 LULAR/N0405F300 T105 LANDU LANDU2B
Aircraft A320/M-SDE3FGHIRWY/LB1

Departure

Time 2026-05-04 16:42
Airport Göteborg Landvetter Airport (ESGG)

Arrival

Time 2026-05-04 18:13
Airport Munich Airport (EDDM)
Time Latitude Longitude Altitude Speed Heading
2026-05-04 16:11 57.66887 12.29426 516 ft 0 kts 116°
2026-05-04 16:34 57.66894 12.29400 488 ft 2 kts 116°
2026-05-04 16:34 57.66901 12.29373 516 ft 2 kts 116°
2026-05-04 16:35 57.66911 12.29290 516 ft 2 kts 28°
2026-05-04 16:35 57.66908 12.29286 516 ft 0 kts 26°
2026-05-04 16:38 57.66928 12.29305 516 ft 4 kts 27°
2026-05-04 16:39 57.67052 12.29195 516 ft 10 kts 15°
2026-05-04 16:39 57.67158 12.29292 516 ft 7 kts 26°
2026-05-04 16:40 57.67259 12.29382 516 ft 12 kts 25°
2026-05-04 16:40 57.67408 12.29467 516 ft 10 kts 323°
2026-05-04 16:41 57.67459 12.29177 515 ft 14 kts 261°
2026-05-04 16:41 57.66839 12.28482 513 ft 106 kts 206°
2026-05-04 16:42 57.64060 12.25952 2050 ft 154 kts 212°
2026-05-04 16:43 57.61973 12.24035 3068 ft 188 kts 211°
2026-05-04 16:43 57.59056 12.22715 3874 ft 244 kts 189°
2026-05-04 16:43 57.57411 12.22511 4430 ft 262 kts 188°
2026-05-04 16:44 57.49784 12.24111 8064 ft 286 kts 177°
2026-05-04 16:45 57.45819 12.25178 9925 ft 290 kts 179°
2026-05-04 16:46 57.39254 12.26791 11562 ft 334 kts 179°
2026-05-04 16:46 57.34583 12.28000 13176 ft 342 kts 179°
2026-05-04 16:47 57.29811 12.29246 14568 ft 350 kts 179°
2026-05-04 16:47 57.24935 12.30499 15887 ft 358 kts 179°
2026-05-04 16:48 57.17445 12.32397 17838 ft 370 kts 179°
2026-05-04 16:48 57.14884 12.33044 18442 ft 374 kts 179°
2026-05-04 16:49 57.09687 12.34374 19591 ft 380 kts 178°
2026-05-04 16:49 57.04397 12.35727 20721 ft 387 kts 178°
2026-05-04 16:50 56.99013 12.37089 21755 ft 394 kts 178°
2026-05-04 16:50 56.93544 12.38468 22813 ft 400 kts 178°
2026-05-04 16:51 56.87978 12.39866 23763 ft 407 kts 178°
2026-05-04 16:51 56.85159 12.40571 24174 ft 410 kts 178°
2026-05-04 16:51 56.79470 12.42002 25042 ft 415 kts 177°
2026-05-04 16:52 56.73728 12.43444 25914 ft 417 kts 176°
2026-05-04 16:52 56.70846 12.44165 26357 ft 419 kts 176°
2026-05-04 16:53 56.65042 12.45602 27169 ft 423 kts 176°
2026-05-04 16:53 56.56223 12.47770 28346 ft 430 kts 176°
2026-05-04 16:54 56.53253 12.48503 28740 ft 432 kts 176°
2026-05-04 16:55 56.41225 12.51461 30193 ft 440 kts 175°
2026-05-04 16:55 56.35127 12.52945 30781 ft 443 kts 175°
2026-05-04 16:56 56.28983 12.54448 31332 ft 447 kts 175°
2026-05-04 16:56 56.19761 12.56687 32384 ft 446 kts 176°
2026-05-04 16:57 56.16681 12.56953 32767 ft 441 kts 186°
2026-05-04 16:57 56.10662 12.55419 33519 ft 436 kts 194°
2026-05-04 16:58 56.01721 12.52608 34544 ft 434 kts 194°
2026-05-04 16:58 55.98749 12.51683 34849 ft 433 kts 194°
2026-05-04 16:59 55.92816 12.49830 35420 ft 432 kts 194°
2026-05-04 17:00 55.81036 12.46170 36584 ft 428 kts 194°
2026-05-04 17:00 55.72271 12.43459 37362 ft 426 kts 194°
2026-05-04 17:01 55.66438 12.41663 37812 ft 425 kts 194°
2026-05-04 17:01 55.60612 12.39878 37947 ft 424 kts 194°
2026-05-04 17:02 55.54806 12.38107 37948 ft 423 kts 194°
2026-05-04 17:03 55.46109 12.35441 37953 ft 423 kts 194°
2026-05-04 17:03 55.37418 12.32797 37966 ft 423 kts 194°
2026-05-04 17:04 55.25801 12.29306 37956 ft 423 kts 194°
2026-05-04 17:05 55.14236 12.25826 37941 ft 423 kts 194°
2026-05-04 17:06 55.06515 12.23513 37955 ft 423 kts 194°
2026-05-04 17:07 54.98791 12.21208 37958 ft 423 kts 194°
2026-05-04 17:07 54.92005 12.19194 37960 ft 423 kts 194°
2026-05-04 17:08 54.83299 12.16629 37948 ft 423 kts 194°
2026-05-04 17:09 54.77483 12.14923 37950 ft 423 kts 194°
2026-05-04 17:09 54.71715 12.13223 37960 ft 423 kts 194°
2026-05-04 17:10 54.57026 12.10523 37957 ft 427 kts 186°
2026-05-04 17:11 54.51086 12.10209 37971 ft 427 kts 186°
2026-05-04 17:12 54.42172 12.09651 37979 ft 427 kts 187°
2026-05-04 17:13 54.27328 12.08392 37982 ft 426 kts 187°
2026-05-04 17:14 54.15481 12.07470 37980 ft 426 kts 187°
2026-05-04 17:15 54.06592 12.06787 37980 ft 426 kts 187°
2026-05-04 17:16 53.94764 12.05874 37985 ft 426 kts 187°
2026-05-04 17:17 53.82909 12.04955 37962 ft 426 kts 187°
2026-05-04 17:18 53.71028 12.04065 37971 ft 427 kts 187°
2026-05-04 17:19 53.59149 12.03150 37963 ft 427 kts 187°
2026-05-04 17:20 53.47271 12.02267 37982 ft 426 kts 187°
2026-05-04 17:20 53.38421 12.01607 37974 ft 426 kts 188°
2026-05-04 17:21 53.26561 12.00712 37996 ft 424 kts 188°
2026-05-04 17:22 53.20705 12.00275 37990 ft 423 kts 188°
2026-05-04 17:23 53.08960 11.99398 37980 ft 421 kts 188°
2026-05-04 17:24 53.00191 11.98755 37989 ft 419 kts 188°
2026-05-04 17:25 52.88555 11.97896 37981 ft 418 kts 188°
2026-05-04 17:26 52.76931 11.97056 37977 ft 418 kts 188°
2026-05-04 17:27 52.62405 11.96000 37956 ft 418 kts 188°
2026-05-04 17:28 52.50788 11.95151 37975 ft 418 kts 188°
2026-05-04 17:29 52.33351 11.93913 37981 ft 417 kts 187°
2026-05-04 17:31 52.18894 11.92860 37967 ft 417 kts 188°
2026-05-04 17:32 52.04375 11.91842 37963 ft 418 kts 187°
2026-05-04 17:33 51.92726 11.91081 37971 ft 418 kts 187°
2026-05-04 17:34 51.81074 11.90422 37962 ft 418 kts 187°
2026-05-04 17:35 51.66511 11.89841 37980 ft 423 kts 177°
2026-05-04 17:36 51.60666 11.91139 37984 ft 424 kts 176°
2026-05-04 17:36 51.54884 11.92458 37981 ft 424 kts 176°
2026-05-04 17:37 51.49044 11.93772 37979 ft 424 kts 177°
2026-05-04 17:37 51.43205 11.95076 37967 ft 424 kts 176°
2026-05-04 17:38 51.37378 11.96375 37976 ft 423 kts 176°
2026-05-04 17:38 51.31546 11.97680 37978 ft 423 kts 176°
2026-05-04 17:39 51.22810 11.99613 37955 ft 423 kts 176°
2026-05-04 17:39 51.16974 12.00902 37960 ft 423 kts 176°
2026-05-04 17:40 51.11149 12.02185 37969 ft 423 kts 176°
2026-05-04 17:40 51.05302 12.03473 37971 ft 423 kts 176°
2026-05-04 17:41 50.99474 12.04753 37974 ft 423 kts 176°
2026-05-04 17:41 50.93656 12.06026 37967 ft 422 kts 176°
2026-05-04 17:42 50.87835 12.07304 37976 ft 422 kts 176°
2026-05-04 17:42 50.82019 12.08577 37980 ft 422 kts 176°
2026-05-04 17:43 50.76199 12.09832 37981 ft 421 kts 176°
2026-05-04 17:43 50.70393 12.11097 37976 ft 421 kts 176°
2026-05-04 17:44 50.64583 12.12354 37972 ft 421 kts 176°
2026-05-04 17:44 50.58800 12.13601 37971 ft 421 kts 176°
2026-05-04 17:45 50.52984 12.14863 37974 ft 421 kts 176°
2026-05-04 17:45 50.47167 12.16120 37964 ft 421 kts 176°
2026-05-04 17:46 50.41364 12.17336 37974 ft 421 kts 176°
2026-05-04 17:46 50.35542 12.18542 37975 ft 421 kts 176°
2026-05-04 17:47 50.29879 12.19743 37739 ft 401 kts 176°
2026-05-04 17:47 50.27105 12.20323 37127 ft 401 kts 176°
2026-05-04 17:47 50.24332 12.20897 36475 ft 403 kts 176°
2026-05-04 17:48 50.22489 12.21277 36024 ft 403 kts 176°
2026-05-04 17:48 50.19708 12.21851 35402 ft 404 kts 176°
2026-05-04 17:48 50.16882 12.22435 34421 ft 414 kts 176°
2026-05-04 17:48 50.13069 12.23224 33500 ft 416 kts 176°
2026-05-04 17:49 50.11137 12.23626 33098 ft 414 kts 176°
2026-05-04 17:49 50.08289 12.24218 32587 ft 410 kts 176°
2026-05-04 17:49 50.05490 12.24804 32326 ft 402 kts 176°
2026-05-04 17:49 50.02737 12.25378 32044 ft 396 kts 176°
2026-05-04 17:50 50.00011 12.25945 31581 ft 392 kts 176°
2026-05-04 17:50 49.97322 12.26504 31111 ft 389 kts 176°
2026-05-04 17:50 49.94647 12.27054 30651 ft 386 kts 176°
2026-05-04 17:50 49.91989 12.27597 30203 ft 383 kts 176°
2026-05-04 17:51 49.89358 12.28136 29716 ft 380 kts 176°
2026-05-04 17:51 49.86781 12.28669 29303 ft 376 kts 176°
2026-05-04 17:51 49.84207 12.29204 28881 ft 371 kts 176°
2026-05-04 17:51 49.81666 12.29759 28476 ft 367 kts 175°
2026-05-04 17:52 49.79180 12.30002 28339 ft 350 kts 186°
2026-05-04 17:52 49.76790 12.29864 28247 ft 340 kts 186°
2026-05-04 17:52 49.74411 12.29729 28144 ft 343 kts 185°
2026-05-04 17:52 49.72019 12.29590 28067 ft 344 kts 185°
2026-05-04 17:53 49.69622 12.29498 27984 ft 345 kts 184°
2026-05-04 17:53 49.67224 12.29457 27907 ft 345 kts 184°
2026-05-04 17:53 49.64828 12.29436 27824 ft 344 kts 184°
2026-05-04 17:53 49.62440 12.29416 27743 ft 344 kts 184°
2026-05-04 17:54 49.60044 12.29387 27665 ft 343 kts 184°
2026-05-04 17:54 49.57658 12.29353 27414 ft 345 kts 184°
2026-05-04 17:54 49.55200 12.29305 27019 ft 360 kts 184°
2026-05-04 17:54 49.52677 12.29256 26656 ft 364 kts 184°
2026-05-04 17:55 49.50138 12.29210 26298 ft 364 kts 184°
2026-05-04 17:55 49.47609 12.29168 25946 ft 362 kts 184°
2026-05-04 17:55 49.45120 12.29130 25604 ft 361 kts 184°
2026-05-04 17:55 49.42616 12.29092 25262 ft 359 kts 184°
2026-05-04 17:56 49.40113 12.29051 24922 ft 357 kts 184°
2026-05-04 17:56 49.37639 12.29006 24590 ft 355 kts 184°
2026-05-04 17:56 49.35172 12.28963 24259 ft 353 kts 184°
2026-05-04 17:56 49.32724 12.28920 23936 ft 352 kts 184°
2026-05-04 17:57 49.30282 12.28876 23607 ft 350 kts 184°
2026-05-04 17:57 49.27847 12.28833 23238 ft 349 kts 184°
2026-05-04 17:57 49.25414 12.28790 22669 ft 350 kts 184°
2026-05-04 17:57 49.22971 12.28746 22028 ft 352 kts 184°
2026-05-04 17:58 49.20511 12.28700 21393 ft 355 kts 184°
2026-05-04 17:58 49.18035 12.28656 20782 ft 357 kts 183°
2026-05-04 17:58 49.15548 12.28616 20183 ft 358 kts 183°
2026-05-04 17:58 49.13049 12.28579 19587 ft 359 kts 183°
2026-05-04 17:59 49.10541 12.28542 18987 ft 361 kts 183°
2026-05-04 17:59 49.08023 12.28497 18394 ft 362 kts 183°
2026-05-04 17:59 49.02969 12.28408 17086 ft 364 kts 182°
2026-05-04 18:00 49.00432 12.28366 16437 ft 365 kts 182°
2026-05-04 18:00 48.97895 12.28324 15804 ft 364 kts 182°
2026-05-04 18:00 48.95361 12.28283 15181 ft 364 kts 182°
2026-05-04 18:00 48.92832 12.28242 14580 ft 363 kts 182°
2026-05-04 18:01 48.90338 12.28198 13976 ft 354 kts 182°
2026-05-04 18:01 48.87912 12.28157 13341 ft 344 kts 182°
2026-05-04 18:01 48.85554 12.28120 12684 ft 334 kts 182°
2026-05-04 18:02 48.81025 12.28076 11506 ft 316 kts 181°
2026-05-04 18:02 48.78860 12.28064 10960 ft 307 kts 181°
2026-05-04 18:02 48.76752 12.28057 10421 ft 300 kts 181°
2026-05-04 18:02 48.74714 12.28057 10026 ft 293 kts 181°
2026-05-04 18:03 48.72712 12.28063 9908 ft 282 kts 181°
2026-05-04 18:03 48.70765 12.28061 9926 ft 279 kts 181°
2026-05-04 18:03 48.68825 12.28055 9930 ft 279 kts 181°
2026-05-04 18:03 48.66891 12.28048 9894 ft 278 kts 181°
2026-05-04 18:04 48.64963 12.28043 9525 ft 276 kts 181°
2026-05-04 18:04 48.63024 12.28042 9116 ft 275 kts 181°
2026-05-04 18:04 48.59228 12.28030 8311 ft 274 kts 181°
2026-05-04 18:05 48.57327 12.28002 7903 ft 273 kts 181°
2026-05-04 18:05 48.55425 12.27963 7566 ft 273 kts 181°
2026-05-04 18:05 48.53530 12.27915 7249 ft 273 kts 181°
2026-05-04 18:05 48.51631 12.27856 6934 ft 273 kts 181°
2026-05-04 18:06 48.47838 12.27709 6410 ft 272 kts 181°
2026-05-04 18:06 48.45959 12.27476 6235 ft 268 kts 195°
2026-05-04 18:06 48.44370 12.26185 6055 ft 257 kts 224°
2026-05-04 18:07 48.43258 12.24144 5882 ft 248 kts 233°
2026-05-04 18:07 48.42284 12.22063 5710 ft 239 kts 234°
2026-05-04 18:07 48.41356 12.20033 5532 ft 231 kts 234°
2026-05-04 18:07 48.40459 12.18062 5358 ft 226 kts 234°
2026-05-04 18:08 48.39584 12.16130 5198 ft 221 kts 236°
2026-05-04 18:08 48.39062 12.14007 5062 ft 215 kts 262°
2026-05-04 18:08 48.38901 12.11815 5002 ft 207 kts 263°
2026-05-04 18:08 48.38751 12.09704 4959 ft 197 kts 263°
2026-05-04 18:09 48.38458 12.05710 4505 ft 188 kts 263°
2026-05-04 18:09 48.38171 12.01844 4020 ft 183 kts 263°
2026-05-04 18:10 48.38031 11.99968 3785 ft 182 kts 264°
2026-05-04 18:10 48.37890 11.98071 3547 ft 179 kts 264°
2026-05-04 18:10 48.37751 11.96216 3319 ft 177 kts 264°
2026-05-04 18:10 48.37613 11.94383 3091 ft 176 kts 264°
2026-05-04 18:11 48.37477 11.92569 2859 ft 171 kts 264°
2026-05-04 18:11 48.37348 11.90858 2652 ft 162 kts 264°
2026-05-04 18:11 48.37223 11.89200 2420 ft 157 kts 265°
2026-05-04 18:11 48.37105 11.87596 2201 ft 152 kts 265°
2026-05-04 18:12 48.36986 11.86029 1999 ft 149 kts 265°
2026-05-04 18:12 48.36868 11.84486 1799 ft 148 kts 265°
2026-05-04 18:12 48.36752 11.82957 1635 ft 147 kts 264°
2026-05-04 18:12 48.36633 11.81450 1484 ft 139 kts 270°
2026-05-04 18:13 48.36544 11.80221 1485 ft 94 kts 264°
2026-05-04 18:13 48.36487 11.79500 1485 ft 51 kts 263°
2026-05-04 18:13 48.36303 11.78710 1481 ft 25 kts 233°
2026-05-04 18:14 48.36228 11.78557 1478 ft 13 kts 233°
2026-05-04 18:14 48.36213 11.78530 1480 ft 0 kts 225°
2026-05-04 18:15 48.36200 11.78511 1482 ft 5 kts 225°
2026-05-04 18:16 48.36176 11.78479 1474 ft 4 kts 208°
2026-05-04 18:16 48.36133 11.78478 1483 ft 9 kts 175°
2026-05-04 18:16 48.36052 11.78499 1483 ft 13 kts 152°
2026-05-04 18:17 48.36053 11.78794 1485 ft 16 kts 84°
2026-05-04 18:17 48.36066 11.78972 1479 ft 18 kts 83°
2026-05-04 18:17 48.36072 11.79310 1475 ft 13 kts 147°
2026-05-04 18:18 48.35981 11.79333 1486 ft 14 kts 176°
2026-05-04 18:18 48.35892 11.79377 1483 ft 11 kts 162°
2026-05-04 18:18 48.35858 11.79356 1477 ft 5 kts 264°
2026-05-04 18:18 48.35853 11.79289 1480 ft 7 kts 261°
2026-05-04 18:19 48.35850 11.79250 1476 ft 0 kts 261°
2026-05-04 18:19 48.35849 11.79249 1475 ft 0 kts 249°
2026-05-04 18:19 48.35843 11.79246 1471 ft 0 kts 214°
2026-05-04 18:20 48.35842 11.79239 1473 ft 2 kts 250°
2026-05-04 18:20 48.35841 11.79223 1476 ft 0 kts 265°
2026-05-04 18:20 48.35840 11.79221 1476 ft 0 kts 259°